Flag for U.S.A. Weather past 2 weeks in Stockton, California, U.S.A.

Now
67 °F

Clear.


Feels Like: 67 °F
Forecast: 65 / 81 °F
Wind: 5 mph from Northeast

Location: Stockton Metropolitan Airport

Current Time: Sep 18, 2014 at 3:19:47 AM

Latest Report: Sep 18, 2014 at 2:55 AM


Visibility: 10 mi

Pressure: 29.78 "Hg

Humidity: 73%

Dew point: 58 °F

Location of StocktonLocation

Historic Weather in Stockton — Graph

°F

Stockton temperature yesterday

Maximum temperature yesterday: 92 °F (at 2:55 PM)
Minimum temperature yesterday: 61 °F (at 4:55 AM)
Average temperature yesterday: 74 °F

Past Weeks' High & Low Weather Summary

 TemperatureHumidityPressure
High101 °F (Sep 12, 4:55 PM)90% (Sep 5, 6:55 AM)29.98 "Hg (Sep 5, 6:55 AM)
Low53 °F (Sep 9, 6:55 AM)14% (Sep 10, 4:55 PM)29.63 "Hg (Sep 3, 6:55 PM)
Average75 °F50%29.80 "Hg
* Reported Sep 3 1:55 AM — Sep 18 1:55 AM, Stockton, Weather by CustomWeather, © 2014

Note: Actual official high and low records may vary slightly from our data, if they occured in-between our weather recording intervals... More about our weather records

Advertising

Stockton weather history for previous 24 hours

 ConditionsComfort  
Time TempWeatherWind HumidityBarometerVisibility
1:55 AM
Sep 18
68 °FClear.7 mph65%29.78 "Hg10 mi
12:55 AM69 °FPassing clouds.6 mph63%29.77 "Hg10 mi
11:55 PM
Sep 17
69 °FClear.6 mph61%29.76 "Hg10 mi
10:55 PM70 °FClear.7 mph59%29.75 "Hg10 mi
9:55 PM71 °FClear.7 mph57%29.74 "Hg10 mi
8:55 PM71 °FClear.8 mph61%29.73 "Hg10 mi
7:55 PM76 °FSunny.10 mph52%29.70 "Hg10 mi
6:55 PM82 °FSunny.13 mph40%29.69 "Hg10 mi
5:55 PM89 °FSunny.14 mph32%29.68 "Hg10 mi
4:55 PM92 °FSunny.3 mph25%29.68 "Hg10 mi
3:55 PM92 °FSunny.5 mph21%29.70 "Hg10 mi
2:55 PM92 °FSunny.No wind23%29.71 "Hg10 mi
1:55 PM88 °FSunny.No wind28%29.74 "Hg10 mi
12:55 PM85 °FSunny.No wind35%29.76 "Hg10 mi
11:55 AM81 °FSunny.6 mph42%29.78 "Hg10 mi
10:55 AM77 °FSunny.3 mph50%29.79 "Hg10 mi
9:55 AM74 °FSunny.6 mph60%29.80 "Hg10 mi
8:55 AM69 °FSunny.3 mph70%29.79 "Hg10 mi
7:55 AM66 °FSunny.6 mph81%29.79 "Hg10 mi
6:55 AM62 °FClear.6 mph80%29.78 "Hg10 mi
5:55 AM62 °FClear.3 mph73%29.77 "Hg10 mi
4:55 AM61 °FClear.5 mph83%29.76 "Hg10 mi
3:55 AM63 °FClear.5 mph75%29.76 "Hg10 mi
Weather by CustomWeather, © 2014

See weather overviewHow to use our weather pages